• In United Kingdom
  • List of Countries
  • For 7 days
  • Water Temperature
  • Satellite Maps
  • Weather Map
  • Weather Widgets
  • user-avatar
    Login

    Hourly Weather Lankaran

    Today, 26 June, Monday

    Time Temperature Precipitation Wind Pressure Humidity
    00:00 +14°C° 0 mm 1 mps 635 mmHg 85%
    01:00 +14°C° 0 mm 1 mps 635 mmHg 86%
    02:00 +13°C° 0 mm 2 mps 635 mmHg 88%
    03:00 +14°C° 0 mm 2 mps 635 mmHg 89%
    04:00 +14°C° 0 mm 2 mps 636 mmHg 88%
    05:00 +15°C° 0 mm 2 mps 636 mmHg 86%
    06:00 +16°C° 0 mm 2 mps 637 mmHg 85%
    07:00 +16°C° 0.1 mm 3 mps 637 mmHg 81%
    08:00 +17°C° 0.1 mm 3 mps 637 mmHg 78%
    09:00 +18°C° 0 mm 3 mps 637 mmHg 75%
    10:00 +19°C° 0 mm 3 mps 637 mmHg 72%
    11:00 +19°C° 0 mm 3 mps 637 mmHg 68%
    12:00 +20°C° 0 mm 4 mps 637 mmHg 65%
    13:00 +21°C° 0 mm 4 mps 637 mmHg 63%
    14:00 +21°C° 0 mm 4 mps 637 mmHg 62%
    15:00 +21°C° 0 mm 4 mps 637 mmHg 60%
    16:00 +21°C° 0 mm 3 mps 637 mmHg 65%
    17:00 +20°C° 0 mm 3 mps 637 mmHg 69%
    18:00 +19°C° 0 mm 3 mps 637 mmHg 74%
    19:00 +18°C° 0 mm 2 mps 637 mmHg 79%
    20:00 +17°C° 0 mm 2 mps 637 mmHg 84%
    21:00 +16°C° 0 mm 1 mps 637 mmHg 89%
    22:00 +15°C° 0 mm 1 mps 636 mmHg 89%
    23:00 +14°C° 0 mm 1 mps 636 mmHg 89%

    Tomorrow, 27 June, Tuesday

    Time Temperature Precipitation Wind Pressure Humidity
    00:00 +14°C° 0 mm 1 mps 636 mmHg 90%
    01:00 +13°C° 0 mm 1 mps 636 mmHg 90%
    02:00 +13°C° 0 mm 1 mps 635 mmHg 90%
    03:00 +12°C° 0 mm 1 mps 635 mmHg 90%
    04:00 +14°C° 0 mm 1 mps 636 mmHg 85%
    05:00 +15°C° 0 mm 1 mps 636 mmHg 79%
    06:00 +18°C° 0 mm 1 mps 636 mmHg 74%
    07:00 +20°C° 0 mm 1 mps 637 mmHg 67%
    08:00 +20°C° 0 mm 2 mps 637 mmHg 60%
    09:00 +23°C° 0 mm 2 mps 637 mmHg 53%
    10:00 +25°C° 0 mm 2 mps 637 mmHg 50%
    11:00 +26°C° 0 mm 3 mps 637 mmHg 47%
    12:00 +27°C° 0 mm 3 mps 637 mmHg 44%
    13:00 +27°C° 0 mm 3 mps 636 mmHg 46%
    14:00 +27°C° 0 mm 3 mps 636 mmHg 47%
    15:00 +28°C° 0 mm 3 mps 636 mmHg 49%
    16:00 +26°C° 0 mm 3 mps 635 mmHg 55%
    17:00 +25°C° 0 mm 3 mps 635 mmHg 61%
    18:00 +24°C° 0 mm 3 mps 634 mmHg 68%
    19:00 +23°C° 0 mm 2 mps 634 mmHg 74%
    20:00 +20°C° 0 mm 2 mps 634 mmHg 81%
    21:00 +18°C° 0 mm 2 mps 634 mmHg 87%
    22:00 +18°C° 0 mm 2 mps 634 mmHg 87%
    23:00 +18°C° 0 mm 1 mps 633 mmHg 87%

    Day after tomorrow, 28 June, Wednesday

    Time Temperature Precipitation Wind Pressure Humidity
    00:00 +18°C° 0 mm 1 mps 633 mmHg 86%
    01:00 +16°C° 0 mm 1 mps 633 mmHg 87%
    02:00 +16°C° 0 mm 1 mps 633 mmHg 87%
    03:00 +15°C° 0 mm 1 mps 632 mmHg 87%
    04:00 +18°C° 0 mm 1 mps 633 mmHg 83%
    05:00 +20°C° 0 mm 1 mps 633 mmHg 79%
    06:00 +21°C° 0 mm 1 mps 634 mmHg 75%
    07:00 +23°C° 0 mm 1 mps 634 mmHg 68%
    08:00 +25°C° 0 mm 2 mps 635 mmHg 60%
    09:00 +26°C° 0 mm 2 mps 635 mmHg 53%
    10:00 +27°C° 0 mm 2 mps 635 mmHg 50%
    11:00 +28°C° 0 mm 3 mps 635 mmHg 48%
    12:00 +29°C° 0 mm 3 mps 635 mmHg 45%
    13:00 +29°C° 0 mm 3 mps 634 mmHg 46%
    14:00 +29°C° 0 mm 3 mps 634 mmHg 47%
    15:00 +29°C° 0 mm 3 mps 633 mmHg 48%
    16:00 +28°C° 0 mm 3 mps 633 mmHg 53%
    17:00 +27°C° 0 mm 3 mps 633 mmHg 57%
    18:00 +26°C° 0 mm 2 mps 632 mmHg 62%
    19:00 +24°C° 0 mm 2 mps 632 mmHg 69%
    20:00 +22°C° 0 mm 1 mps 632 mmHg 75%
    21:00 +20°C° 0 mm 1 mps 632 mmHg 82%
    22:00 +19°C° 0 mm 1 mps 632 mmHg 82%
    23:00 +19°C° 0 mm 1 mps 632 mmHg 82%

    29 June, Thursday

    Time Temperature Precipitation Wind Pressure Humidity
    00:00 +18°C° 0 mm 1 mps 632 mmHg 83%
    01:00 +18°C° 0 mm 1 mps 632 mmHg 83%
    02:00 +16°C° 0 mm 1 mps 631 mmHg 83%
    03:00 +16°C° 0 mm 1 mps 631 mmHg 83%
    04:00 +18°C° 0 mm 1 mps 632 mmHg 78%
    05:00 +19°C° 0 mm 1 mps 632 mmHg 73%
    06:00 +19°C° 0 mm 2 mps 633 mmHg 68%
    07:00 +21°C° 0 mm 2 mps 633 mmHg 58%
    08:00 +24°C° 0 mm 2 mps 634 mmHg 48%
    09:00 +26°C° 0 mm 3 mps 634 mmHg 38%
    10:00 +27°C° 0 mm 3 mps 634 mmHg 33%
    11:00 +28°C° 0 mm 4 mps 634 mmHg 29%
    12:00 +29°C° 0 mm 4 mps 635 mmHg 25%
    13:00 +29°C° 0 mm 4 mps 634 mmHg 25%
    14:00 +29°C° 0 mm 4 mps 634 mmHg 25%
    15:00 +29°C° 0 mm 4 mps 633 mmHg 25%
    16:00 +27°C° 0 mm 4 mps 633 mmHg 29%
    17:00 +26°C° 0 mm 3 mps 633 mmHg 33%
    18:00 +24°C° 0 mm 2 mps 632 mmHg 37%
    19:00 +21°C° 0 mm 2 mps 632 mmHg 41%
    20:00 +19°C° 0 mm 2 mps 632 mmHg 46%
    21:00 +18°C° 0 mm 1 mps 632 mmHg 50%
    22:00 +18°C° 0 mm 1 mps 632 mmHg 46%
    23:00 +16°C° 0 mm 1 mps 632 mmHg 42%

    30 June, Friday

    Time Temperature Precipitation Wind Pressure Humidity
    00:00 +16°C° 0 mm 1 mps 632 mmHg 39%
    01:00 +15°C° 0 mm 1 mps 631 mmHg 38%
    02:00 +15°C° 0 mm 2 mps 631 mmHg 37%
    03:00 +14°C° 0 mm 2 mps 631 mmHg 36%
    04:00 +16°C° 0 mm 2 mps 632 mmHg 35%
    05:00 +17°C° 0 mm 2 mps 632 mmHg 34%
    06:00 +19°C° 0 mm 2 mps 633 mmHg 34%
    07:00 +20°C° 0 mm 3 mps 633 mmHg 30%
    08:00 +22°C° 0 mm 3 mps 634 mmHg 27%
    09:00 +25°C° 0 mm 4 mps 635 mmHg 24%
    10:00 +26°C° 0 mm 4 mps 634 mmHg 24%
    11:00 +27°C° 0 mm 5 mps 634 mmHg 23%
    12:00 +28°C° 0 mm 5 mps 634 mmHg 23%
    13:00 +28°C° 0 mm 5 mps 634 mmHg 25%
    14:00 +27°C° 0 mm 6 mps 634 mmHg 26%
    15:00 +27°C° 0 mm 6 mps 634 mmHg 28%
    16:00 +26°C° 0 mm 5 mps 634 mmHg 33%
    17:00 +23°C° 0 mm 4 mps 633 mmHg 39%
    18:00 +21°C° 0 mm 4 mps 633 mmHg 45%
    19:00 +19°C° 0 mm 3 mps 633 mmHg 53%
    20:00 +17°C° 0 mm 3 mps 633 mmHg 61%
    21:00 +14°C° 0 mm 3 mps 633 mmHg 70%
    22:00 +14°C° 0 mm 3 mps 633 mmHg 68%
    23:00 +13°C° 0 mm 3 mps 633 mmHg 66%

    1 July, Saturday

    Time Temperature Precipitation Wind Pressure Humidity
    00:00 +13°C° 0 mm 3 mps 633 mmHg 64%
    01:00 +13°C° 0 mm 3 mps 633 mmHg 65%
    02:00 +13°C° 0 mm 3 mps 633 mmHg 65%
    03:00 +13°C° 0 mm 3 mps 633 mmHg 65%
    04:00 +14°C° 0 mm 3 mps 633 mmHg 63%
    05:00 +16°C° 0 mm 3 mps 634 mmHg 60%
    06:00 +17°C° 0 mm 3 mps 634 mmHg 57%
    07:00 +19°C° 0 mm 4 mps 635 mmHg 51%
    08:00 +21°C° 0 mm 4 mps 636 mmHg 45%
    09:00 +23°C° 0 mm 4 mps 636 mmHg 39%
    10:00 +25°C° 0 mm 5 mps 636 mmHg 37%
    11:00 +26°C° 0 mm 5 mps 636 mmHg 35%
    12:00 +27°C° 0 mm 6 mps 636 mmHg 33%
    13:00 +27°C° 0 mm 6 mps 636 mmHg 34%
    14:00 +27°C° 0 mm 6 mps 636 mmHg 35%
    15:00 +26°C° 0 mm 6 mps 636 mmHg 36%
    16:00 +25°C° 0 mm 5 mps 635 mmHg 40%
    17:00 +23°C° 0 mm 4 mps 635 mmHg 44%
    18:00 +21°C° 0 mm 4 mps 635 mmHg 48%
    19:00 +19°C° 0 mm 3 mps 635 mmHg 55%
    20:00 +17°C° 0 mm 3 mps 635 mmHg 63%
    21:00 +15°C° 0 mm 2 mps 634 mmHg 70%
    22:00 +15°C° 0 mm 2 mps 634 mmHg 67%
    23:00 +15°C° 0 mm 2 mps 634 mmHg 63%
    Show more